Weather Roundup
Issued by NWS Springfield, MO

Home | Current Version | Previous Version | Text Only | Print | Product List | Glossary On
Versions: 1 2 3 4 5 6 7 8 9 10 11 12 13 14 15 16 17 18 19 20 21 22 23 24 25 26 27 28 29 30 31 32 33 34 35 36 37 38 39 40 41 42 43 44 45 46 47 48 49 50
000
NZUS99 KSGF 132059
HRRSGF

HOURLY WEATHER
NATIONAL WEATHER SERVICE SPRINGFIELD MO
400 PM CDT SUN JUL 13 2014

......SGF CWA......

CITY           SKY/WX    TMP DP  RH WIND       PRES   REMARKS
SPRINGFIELD    MOSUNNY   90  68  48 S10       29.97F HX  94
JOPLIN         PTSUNNY   93  68  43 W16       29.96F HX  97
WEST PLAINS    SUNNY     88  72  58 S9        30.02F HX  94
ROLLA          PTSUNNY   86  66  51 W8        29.97F
OSAGE BEACH    MOSUNNY   86  70  58 NW3       29.97F HX  90
BRANSON        MOSUNNY   95  66  38 SW6       30.02F HX  98

......SURROUNDING SGF CWA......

CITY           SKY/WX    TMP DP  RH WIND       PRES   REMARKS
CHANUTE        SUNNY     90  67  46 CALM      29.98F HX  93
PARSONS        SUNNY     92  70  48 SW9       29.98F HX  97
COFFEYVILLE    SUNNY     93  69  45 W8        29.95F HX  98
EMPORIA        CLOUDY    84  70  62 VRB5      30.02R
SILOAM SPRINGS SUNNY     93  68  43 SW15      30.01F HX  97
HARRISON AR    SUNNY     92  66  42 SW8       30.03F HX  94
NEAR YELLVILLE   N/A     93  68  43 SW8       30.00F HX  97

......KANSAS AND MISSOURI......

CITY           SKY/WX    TMP DP  RH WIND       PRES   REMARKS
KANSAS CTY INT PTSUNNY   85  70  60 N6        30.01S
DOWNTOWN KC    MOSUNNY   86  72  62 N6        29.98S HX  92
COLUMBIA       PTSUNNY   83  71  67 NW6       29.98S
SEDALIA        LGT RAIN  82  73  74 CALM      30.00F
ST JOSEPH      SUNNY     85  71  63 NW6       30.00F HX  90
ST LOUIS       PTSUNNY   89  70  53 SW8       29.95F HX  94
SPIRIT OF STL  PTSUNNY   87  72  60 SW5       29.94F HX  93
KIRKSVILLE     SUNNY     86  66  51 N5        29.99F
WICHITA        PTSUNNY   87  69  54 N14G20    30.02F HX  91
TOPEKA         MOSUNNY   88  70  55 N6        30.01S HX  93
OLATHE         CLOUDY    84  72  67 VRB5      29.99F

......TENNESSEE......

CITY           SKY/WX    TMP DP  RH WIND       PRES   REMARKS
MEMPHIS        MOSUNNY   91  74  57 SW13      30.02F HX 100
NASHVILLE      PTSUNNY   93  68  43 SW13      30.00F HX  97

......ARKANSAS.......

CITY           SKY/WX    TMP DP  RH WIND       PRES   REMARKS
FAYETTEVILLE   SUNNY     91  70  49 S13       30.01F HX  96
FT SMITH       SUNNY     94  71  47 S10       29.98F HX 101
LITTLE ROCK    MOSUNNY   95  69  42 SW6       30.01F HX 100

......OKLAHOMA.......

CITY           SKY/WX    TMP DP  RH WIND       PRES   REMARKS
TULSA          MOSUNNY   99  66  33 MISG      29.92F HX 103
PONCA CITY     MOSUNNY   92  72  51 NW9       29.98S HX  99
MCALESTER      SUNNY     95  70  44 SW9       30.01F HX 101
OKLAHOMA CITY  MOSUNNY   99  59  26 SW12      30.00F HX  99

......IOWA............

CITY           SKY/WX    TMP DP  RH WIND       PRES   REMARKS
DES MOINES     MOSUNNY   85  64  49 NW15G24   29.96S
QUAD CITIES    SUNNY     84  67  56 W8        29.93F

......ILLINOIS........

CITY           SKY/WX    TMP DP  RH WIND       PRES   REMARKS
QUINCY         SUNNY     84  68  58 NW7       29.96F
CHICAGO        MOSUNNY   85  57  38 NW13      29.89F



USA.gov is the U.S. government's official web portal to all federal, state and local government web resources and services.